Location: Robert Ferguson Observatory
(38.4385°N, 122.5078°W)
Time: 14:42:47
(UTC-07:00)

Daily predictions for brighter satellites

Satellite Brightness Start Highest point End
(mag) Time Altitude Azimuth Time Altitude Azimuth Time Altitude Azimuth
Cosmos 1452 Rocket 3.8 20:43:20 10° S 20:48:18 45° ESE 20:53:19 10° NNE
Meteor 2-3 Rocket 4.5 20:42:52 10° SSW 20:48:23 59° WNW 20:53:55 10° N
Cosmos 1190 Rocket 4.0 20:47:04 10° NNW 20:52:16 75° ENE 20:57:28 10° SSE
Cosmos 1238 Rocket 4.3 20:50:32 10° NNE 20:53:03 18° E 20:55:50 10° SE
Abrixas 4.4 20:52:24 10° SSE 20:54:03 14° SE 20:55:43 10° E
SPOT 5 4.5 20:53:58 10° ESE 20:58:04 23° ENE 21:02:11 10° NNE
H-2A R/B 3.1 20:59:08 10° S 21:02:48 66° W 21:06:32 10° NNW
CENTAUR R/B 3.9 20:56:09 10° NW 21:03:48 51° WSW 21:11:45 10° S
Meteor 1-27 Rocket 3.9 21:03:11 10° N 21:08:37 54° ENE 21:13:59 10° SSE
H-2A R/B 2.9 21:06:50 10° SE 21:10:38 33° ENE 21:14:24 10° N
Cosmos 1408 3.2 21:07:48 10° SSE 21:11:11 36° E 21:14:33 10° NNE
Cosmos 1782 2.8 21:07:43 10° N 21:11:47 88° WSW 21:15:49 10° S
YAOGAN 11 4.2 21:09:38 10° SSE 21:14:09 78° ENE 21:18:44 10° N
ATLAS 5 CENTAUR R/B 3.6 21:08:47 10° NW 21:14:30 42° WSW 21:20:31 10° S
COS B Rocket 3.6 21:15:09 10° NNE 21:18:49 39° E 21:21:39 13° SSE
CZ-4 DEB 2.9 21:16:10 10° S 21:19:19 73° WSW 21:22:29 10° NNW
Cosmos 2154 Rocket 4.0 21:14:29 10° S 21:20:38 69° E 21:26:48 10° NNE
Cosmos 1174 3.1 21:19:35 10° NNW 21:22:43 78° WSW 21:24:59 16° SSE
Okean 3 3.9 21:19:17 10° N 21:23:22 42° E 21:26:32 15° SE
Cosmos 676 Rocket 4.0 21:18:10 10° NNW 21:23:25 85° ENE 21:28:37 10° SSE
BREEZE-M DEB (TANK) 4.5 21:08:13 10° WNW 21:24:19 55° NNE 21:28:16 12° E
Cosmos 1954 Rocket 4.0 21:21:20 10° NNW 21:26:33 70° ENE 21:31:07 14° SSE
GPS 2-05 Rocket1 3.1 21:24:15 10° WSW 21:27:54 55° S 21:30:20 19° ESE
Cosmos 1825 2.1 21:25:08 10° S 21:28:54 68° E 21:32:43 10° NNE
Cosmos 1939 Rocket 2.7 21:27:48 13° SSE 21:31:12 72° ENE 21:35:08 10° N
Atlas Centaur 2 3.0 21:34:36 10° SW 21:36:44 15° SSW 21:37:47 13° S
Cosmos 1833 Rocket 3.9 21:35:14 10° N 21:39:57 27° ENE 21:42:58 17° E
Cosmos 1844 Rocket 4.4 21:37:06 10° SW 21:42:16 36° WNW 21:47:26 10° N
Cosmos 1741 Rocket 4.4 21:38:16 10° N 21:43:18 46° ENE 21:46:14 23° SE
PSLV R/B 3.9 21:43:22 29° E 21:43:56 32° ENE 21:46:38 10° N
Cosmos 2278 Rocket 2.5 21:38:58 10° SSW 21:44:36 71° WNW 21:50:18 10° NNE
Okean 2 Rocket 3.0 21:42:12 10° S 21:46:35 69° E 21:50:58 10° NNE
CZ-4 SHROUD 3.9 21:47:01 31° ESE 21:47:39 35° ENE 21:50:31 10° N
Cosmos 1782 Rocket 3.7 21:49:33 10° S 21:54:00 79° W 21:58:30 10° N
Envisat 3.2 21:52:23 14° S 21:56:42 73° WSW 22:01:47 10° NNW
SEDSat Delta rocket 3.8 21:55:26 10° SW 21:59:11 28° S 21:59:21 28° SSE
COSMOS 2487 3.3 21:57:23 10° NNW 22:00:53 47° WSW 22:02:51 22° SSW
OAO 3 Rocket 3.5 21:57:02 10° WSW 22:01:49 48° SSE 22:03:42 31° ESE
Cosmos 614 Rocket 4.0 21:57:25 10° NNW 22:02:28 63° ENE 22:04:45 32° SE
Meteor 2-13 Rocket 4.4 21:56:33 10° S 22:02:42 87° E 22:08:54 10° N
UNK 4.4 21:58:58 10° NNE 22:05:06 68° ESE 22:10:08 14° S
Cosmos 2082 Rocket 2.5 22:00:34 10° NNW 22:06:10 54° ENE 22:08:39 31° SE
ERS-1 Rocket 4.3 22:03:38 10° SSW 22:08:16 37° W 22:12:55 10° NNW
Elektron 3 4.1 22:05:21 10° NW 22:08:20 84° NE 22:09:36 41° SE
Cosmos 1975 Rocket 3.4 22:05:58 10° NNW 22:10:15 64° W 22:12:50 23° S
APEX 4.1 22:07:21 10° SW 22:11:10 59° WNW 22:16:12 10° NNE
ISS -0.3 22:09:57 10° WNW 22:12:16 18° NNW 22:14:35 10° NNE
Cosmos 2218 Rocket 4.0 22:11:24 19° S 22:16:05 73° E 22:22:28 10° N
Cosmos 1140 Rocket 3.9 22:12:16 10° NNW 22:17:20 59° WSW 22:20:10 26° S
Meteor 1-14 Rocket 4.1 22:13:54 17° S 22:18:25 87° E 22:24:02 10° N
Terra 3.1 22:19:00 24° E 22:19:40 25° ENE 22:23:30 10° NNE
Cosmos 2297 4.0 22:16:36 10° SSW 22:22:16 69° WNW 22:28:00 10° NNE
DNEPR-1 R/B 4.0 22:17:36 10° NW 22:22:42 60° WSW 22:24:13 38° S
Cosmos 1536 Rocket 3.8 22:18:50 10° N 22:23:13 52° E 22:23:51 48° ESE
Cosmos 1959 Rocket 4.4 22:22:15 21° S 22:26:33 88° E 22:32:41 10° N
NOAA 11 4.2 22:24:52 39° SSE 22:26:56 73° ENE 22:32:26 10° N
CZ-4B R/B 3.2 22:22:08 10° NNE 22:27:04 82° ESE 22:29:10 34° S
Lacrosse 5 rocket 3.7 22:33:05 11° NE 22:33:05 11° NE 22:33:11 10° NE
Abrixas 3.3 22:26:44 10° WSW 22:29:11 48° W 22:29:11 48° W
MetOp-B 4.4 22:27:17 28° S 22:30:07 63° WSW 22:35:26 10° NNW
Cosmos 1727 Rocket 4.0 22:25:13 10° N 22:31:22 65° E 22:33:31 41° SSE
Meteor 2-8 Rocket 4.5 22:25:34 10° N 22:31:42 66° E 22:33:50 41° SSE
USA 234 3.9 22:26:22 10° ENE 22:31:10 32° ESE 22:31:10 32° ESE
H-2A R/B 2.6 22:32:29 39° ESE 22:33:34 43° ENE 22:38:34 10° N
SPOT 5 4.0 22:32:31 21° SSW 22:35:45 44° W 22:40:53 10° NNW
Cosmos 1242 Rocket 4.3 22:35:23 10° NNW 22:38:37 29° W 22:39:50 24° SW
USA 245 3.4 22:40:35 56° WSW 22:40:46 57° W 22:44:51 10° NNW
YAOGAN 6 3.7 22:42:22 33° WSW 22:42:50 35° W 22:46:06 10° NNW
H-2A R/B 4.3 22:43:58 11° SW 22:46:40 19° W 22:49:42 10° NW
Lacrosse 5 2.0 22:49:52 54° E 22:49:52 54° E 22:54:06 10° NE
SPOT 1/Viking Rocket 3.9 22:47:30 39° SSW 22:49:13 60° W 22:54:24 10° NNW
Cosmos 1302 Rocket 4.5 22:49:53 43° E 22:49:53 43° E 22:54:18 10° NNE
CZ-4C R/B 3.6 22:50:24 61° NE 22:50:24 61° NE 22:54:07 10° N
Cosmos 2369 Rocket 3.7 22:53:08 22° ENE 22:53:08 22° ENE 22:55:48 10° NE
ARGOS 3.3 22:50:50 43° SSW 22:52:27 65° WSW 22:57:47 10° NNW
Cosmos 1339 Rocket 4.4 22:46:31 10° N 22:52:42 80° E 22:54:22 52° SSE
Cosmos 2151 Rocket 4.4 22:51:23 31° SW 22:53:09 49° W 22:57:33 10° N
Gbstr 26 Del rocket 4.0 22:51:28 10° NW 22:56:10 40° NNE 22:56:49 37° NE
Cosmos 1821 Rocket 4.4 23:01:40 42° E 23:01:48 42° E 23:07:35 10° NNE
Cosmos 1300 Rocket 3.6 23:03:17 72° NNE 23:03:17 72° NNE 23:07:18 10° N
Okean 1 Rocket 3.3 23:10:37 65° NNE 23:10:37 65° NNE 23:14:28 10° N
ASTEX 1 3.6 23:06:12 10° NNE 23:10:36 60° ENE 23:10:36 60° ENE
Iridium 4 Rocket 4.4 23:06:36 10° NNE 23:11:59 40° ENE 23:11:59 40° ENE
Cosmos 1809 Rocket 4.5 23:13:45 59° ESE 23:14:01 60° E 23:20:06 10° NNE
Cosmos 2285 Rocket 4.5 23:14:43 43° E 23:14:43 43° E 23:20:08 10° NNE
Cosmos 1943 Rocket 4.4 23:22:12 12° ENE 23:22:12 12° ENE 23:22:53 10° ENE
USA 229 DEB 4.2 23:16:46 10° NW 23:23:37 52° WSW 23:25:08 45° SSW
USA 229 4.2 23:16:52 10° NW 23:23:43 52° WSW 23:25:13 45° SSW
Cosmos 1833 Rocket 3.4 23:18:44 10° NW 23:23:58 41° WSW 23:24:40 40° SW
Okean 1 4.5 23:22:59 10° NNW 23:26:05 41° NW 23:26:05 41° NW
Okean 1-7 Rocket 4.2 23:24:27 10° N 23:28:04 56° NNW 23:28:04 56° NNW
CZ-3C R/B 4.4 23:31:00 10° WSW 23:34:29 13° SW 23:34:29 13° SW
Cosmos 1535 Rocket 4.4 23:41:23 76° SSW 23:41:56 84° W 23:48:22 10° N
NOSS 3-1 (A) 4.1 23:34:32 10° NNW 23:42:10 69° NE 23:43:53 56° ESE
Cosmos 2082 Rocket 4.0 23:45:51 10° NW 23:49:44 19° W 23:50:31 19° WSW
Meteor 2-14 Rocket 4.4 23:54:03 83° NNE 23:54:03 83° NNE 23:59:58 10° N
